Weather History for Queen Alia, Jordan

Change the Weather History Date:

Thursday, February 7, 2013

  Actual Average Record
Temperature  
Mean Temperature 48 °F -  
Max Temperature 59 °F 58 °F 62 °F (2003)
Min Temperature 36 °F 37 °F 22 °F (2014)
Degree Days  
Heating Degree Days 18    
Moisture  
Dew Point 41 °F    
Average Humidity 72    
Maximum Humidity 87    
Minimum Humidity 38    
Precipitation  
Precipitation 0.00 in - - ()
Sea Level Pressure  
Sea Level Pressure 30.09 in    
Wind  
Wind Speed 4 mph ()    
Max Wind Speed 14 mph    
Max Gust Speed -    
Visibility 4.1 miles    
Events      
Averages and records for this station are not official NWS values.
T = Trace of Precipitation, MM = Missing Value Source: Averaged Metar Reports

Daily Weather History Graph

Daily Weather History Graph

Search for Another Location

Airport:

Trip Planner

Search our weather history database for the weather conditions in past years. The results will help you decide how hot, cold, wet, or windy it might be!

Date:

Astronomy

Feb. 07, 2013 Rise Set
Actual Time 7:24 AM EEST 6:15 PM EEST
Civil Twilight 6:59 AM EEST 6:41 PM EEST
Nautical Twilight 6:30 AM EEST 7:09 PM EEST
Astronomical Twilight 6:02 AM EEST 7:38 PM EEST
Moon 4:39 AM EEST (2/7) 3:22 PM EEST (2/7)
Length of Visible Light 11h 41m
Length of Day
10h 50m
Waning Crescent, 11% of the Moon is Illuminated
Feb 7
Waning Crescent
Feb 10
New
Feb 17
First Quarter
Feb 25
Full
Mar 5
Last Quarter

Hourly Weather History & Observations

Time (EEST) Temp. Windchill Dew Point Humidity Pressure Visibility Wind Dir Wind Speed Gust Speed Precip Events Conditions
12:00 AM 47 °F - 42 °F 76% 29.99 in 4 mi West 6.9 mph - -   Haze
12:00 AM 46.4 °F 42.9 °F 41.0 °F 81% 30.01 in 4.3 mi West 6.9 mph - N/A   Partly Cloudy
1:00 AM 46.4 °F 42.9 °F 41.0 °F 81% 29.98 in 4.3 mi WSW 6.9 mph - N/A   Partly Cloudy
2:00 AM 42.8 °F 41.1 °F 39.2 °F 87% 30.04 in 4.3 mi SSE 3.5 mph - N/A   Partly Cloudy
3:00 AM 42 °F - 39 °F 86% 30.04 in 4 mi Calm Calm - -   Mist
3:00 AM 42.8 °F - 39.2 °F 87% 30.04 in 4.3 mi Calm Calm - N/A   Unknown
4:00 AM 42.8 °F - 39.2 °F 87% 30.04 in 4.3 mi Calm Calm - N/A   Unknown
5:00 AM 42.8 °F 41.1 °F 39.2 °F 87% 30.06 in 4.3 mi WSW 3.5 mph - N/A   Partly Cloudy
6:00 AM 43 °F - 40 °F 83% 30.07 in 4 mi West 4.6 mph - -   Mist
6:00 AM 42.8 °F 40.1 °F 39.2 °F 87% 30.06 in 4.3 mi West 4.6 mph - N/A   Partly Cloudy
7:00 AM 41.0 °F 38.0 °F 37.4 °F 87% 30.06 in 3.7 mi SSE 4.6 mph - N/A   Scattered Clouds
8:00 AM 41.0 °F 38.0 °F 37.4 °F 87% 30.09 in 3.7 mi ESE 4.6 mph - N/A   Scattered Clouds
9:00 AM 45 °F - 41 °F 79% 30.12 in 4 mi SE 4.6 mph - -   Mist
9:00 AM 44.6 °F 42.2 °F 41.0 °F 87% 30.09 in 3.7 mi SE 4.6 mph - N/A   Mostly Cloudy
10:00 AM 48.2 °F - 42.8 °F 82% 30.12 in 3.7 mi South 4.6 mph - N/A   Unknown
11:00 AM 51.8 °F - 42.8 °F 71% 30.15 in 3.7 mi SE 3.5 mph - N/A   Unknown
12:00 PM 55 °F - 45 °F 59% 30.14 in 4 mi WSW 6.9 mph - -   Haze
12:00 PM 55.4 °F - 44.6 °F 67% 30.15 in 3.7 mi WSW 6.9 mph - N/A   Scattered Clouds
1:00 PM 55.4 °F - 42.8 °F 63% 30.12 in 4.3 mi WSW 6.9 mph - N/A   Scattered Clouds
2:00 PM 55.4 °F - 41.0 °F 58% 30.12 in 4.3 mi Calm Calm - N/A   Scattered Clouds
3:00 PM 58 °F - 39 °F 38% 30.10 in 4 mi SE 4.6 mph - -   Haze
3:00 PM 57.2 °F - 39.2 °F 51% 30.09 in 4.3 mi SE 4.6 mph - N/A   Scattered Clouds
4:00 PM 57.2 °F - 39.2 °F 51% 30.09 in 4.3 mi SE 4.6 mph - N/A   Scattered Clouds
5:00 PM 57.2 °F - 39.2 °F 51% 30.09 in 4.3 mi SE 4.6 mph - N/A   Scattered Clouds
6:00 PM 56 °F - 42 °F 48% 30.12 in 4 mi ESE 4.6 mph - -   Haze
6:00 PM 55.4 °F - 41.0 °F 58% 30.12 in 4.3 mi ESE 4.6 mph - N/A   Scattered Clouds
7:00 PM 53.6 °F - 44.6 °F 72% 30.12 in 4.3 mi ENE 4.6 mph - N/A   Scattered Clouds
8:00 PM 50.0 °F - 42.8 °F 76% 30.12 in 4.3 mi ENE 4.6 mph - N/A   Scattered Clouds
9:00 PM 50 °F - 42 °F 67% 30.16 in 4 mi ENE 9.2 mph - -   Haze
9:00 PM 50.0 °F - 42.8 °F 76% 30.12 in 4.3 mi ENE 9.2 mph - N/A   Partly Cloudy
10:00 PM 50.0 °F - 41.0 °F 71% 30.12 in 4.3 mi East 13.8 mph - N/A   Partly Cloudy
11:00 PM 48.2 °F - 41.0 °F 76% 30.12 in 4.3 mi East 11.5 mph - N/A   Partly Cloudy